Time,TemperatureF,DewpointF,PressureIn,WindDirection,WindDirectionDegrees,WindSpeedMPH,WindSpeedGustMPH,Humidity,HourlyPrecipIn,Conditions,Clouds,dailyrainin,SoftwareType,DateUTC
2013-01-12 00:02:00,51.0,47.6,29.64,SW,219,14.7,19.6,88,0.00,RA,,0.00,WeatherDisplay:10.37,2013-01-12 06:02:00,
2013-01-12 00:07:00,51.1,47.4,29.64,SSW,204,16.0,19.0,87,0.00,RA,,0.00,WeatherDisplay:10.37,2013-01-12 06:07:00,
2013-01-12 00:12:00,51.0,47.3,29.64,SSW,205,14.1,18.4,87,0.00,,,0.00,WeatherDisplay:10.37,2013-01-12 06:12:00,
2013-01-12 00:17:00,50.9,47.5,29.64,SSW,194,14.4,19.6,88,0.00,,,0.00,WeatherDisplay:10.37,2013-01-12 06:17:00,
2013-01-12 00:22:00,50.8,47.4,29.64,SSW,194,14.4,18.4,88,0.00,,,0.00,WeatherDisplay:10.37,2013-01-12 06:22:00,
2013-01-12 00:27:00,50.6,47.2,29.64,South,176,13.3,17.3,88,0.00,,,0.00,WeatherDisplay:10.37,2013-01-12 06:27:00,
2013-01-12 00:32:00,50.5,47.1,29.64,SW,224,15.6,19.6,88,0.00,,,0.00,WeatherDisplay:10.37,2013-01-12 06:32:00,
2013-01-12 00:37:00,50.6,47.2,29.64,South,184,14.5,18.4,88,0.00,,,0.00,WeatherDisplay:10.37,2013-01-12 06:37:00,
2013-01-12 00:42:00,50.5,47.4,29.65,SSW,205,14.4,19.6,89,0.00,,,0.00,WeatherDisplay:10.37,2013-01-12 06:42:00,
2013-01-12 00:47:00,50.4,47.3,29.65,SW,235,14.3,17.3,89,0.00,,,0.00,WeatherDisplay:10.37,2013-01-12 06:47:00,
2013-01-12 00:52:00,50.3,47.2,29.65,SSW,210,13.7,17.3,89,0.00,,,0.00,WeatherDisplay:10.37,2013-01-12 06:52:00,
2013-01-12 00:57:00,50.2,47.1,29.65,SSW,207,13.1,18.4,89,0.00,,,0.00,WeatherDisplay:10.37,2013-01-12 06:57:00,
2013-01-12 01:02:00,50.2,47.1,29.65,SW,214,14.6,18.4,89,0.00,,,0.00,WeatherDisplay:10.37,2013-01-12 07:02:00,
2013-01-12 01:07:00,50.3,47.2,29.65,SSW,201,14.2,19.6,89,0.00,,,0.00,WeatherDisplay:10.37,2013-01-12 07:07:00,
2013-01-12 01:12:00,50.4,47.3,29.65,SSW,193,13.4,18.4,89,0.00,,,0.00,WeatherDisplay:10.37,2013-01-12 07:12:00,
2013-01-12 01:17:00,50.5,47.1,29.66,SW,219,12.9,16.1,88,0.00,,,0.00,WeatherDisplay:10.37,2013-01-12 07:17:00,
2013-01-12 01:22:00,50.3,46.9,29.66,SSW,203,13.7,18.4,88,0.00,,,0.00,WeatherDisplay:10.37,2013-01-12 07:22:00,
2013-01-12 01:27:00,50.3,46.9,29.66,South,191,13.1,17.3,88,0.00,,,0.00,WeatherDisplay:10.37,2013-01-12 07:27:00,
2013-01-12 01:32:00,50.2,46.8,29.66,SSW,203,13.1,17.3,88,0.00,,,0.00,WeatherDisplay:10.37,2013-01-12 07:32:00,
2013-01-12 01:37:00,50.1,46.7,29.66,SSW,208,13.8,18.4,88,0.00,,,0.00,WeatherDisplay:10.37,2013-01-12 07:37:00,
2013-01-12 01:42:00,50.1,46.7,29.66,South,185,14.3,16.1,88,0.00,,,0.00,WeatherDisplay:10.37,2013-01-12 07:42:00,
2013-01-12 01:47:00,50.0,46.6,29.66,SSW,209,12.1,15.0,88,0.00,,,0.00,WeatherDisplay:10.37,2013-01-12 07:47:00,
2013-01-12 01:52:00,50.0,46.6,29.66,SSW,204,13.0,15.0,88,0.00,,,0.00,WeatherDisplay:10.37,2013-01-12 07:52:00,
2013-01-12 01:57:00,50.1,46.7,29.67,SW,222,12.5,17.3,88,0.00,,,0.00,WeatherDisplay:10.37,2013-01-12 07:57:00,
2013-01-12 02:03:00,50.2,46.8,29.67,SSW,195,13.4,15.0,88,0.00,,,0.00,WeatherDisplay:10.37,2013-01-12 08:03:00,
2013-01-12 02:08:00,50.5,47.1,29.67,SW,222,14.2,17.3,88,0.00,,,0.00,WeatherDisplay:10.37,2013-01-12 08:08:00,
2013-01-12 02:13:00,50.6,46.9,29.67,South,169,12.7,13.8,87,0.00,,,0.00,WeatherDisplay:10.37,2013-01-12 08:13:00,
2013-01-12 02:18:00,50.8,47.1,29.68,SW,226,12.3,17.3,87,0.00,,,0.00,WeatherDisplay:10.37,2013-01-12 08:18:00,
2013-01-12 02:23:00,50.9,47.2,29.68,SW,224,13.2,17.3,87,0.00,,,0.00,WeatherDisplay:10.37,2013-01-12 08:23:00,
2013-01-12 02:28:00,50.8,47.1,29.68,SSW,205,13.5,15.0,87,0.00,,,0.00,WeatherDisplay:10.37,2013-01-12 08:28:00,
2013-01-12 02:33:00,50.8,47.1,29.68,SSW,204,14.4,18.4,87,0.00,,,0.00,WeatherDisplay:10.37,2013-01-12 08:33:00,
2013-01-12 02:38:00,50.6,46.9,29.68,SSW,201,12.0,15.0,87,0.00,,,0.00,WeatherDisplay:10.37,2013-01-12 08:38:00,
2013-01-12 02:43:00,50.4,47.0,29.69,SSW,207,12.8,17.3,88,0.00,,,0.00,WeatherDisplay:10.37,2013-01-12 08:43:00,
2013-01-12 02:48:00,50.3,46.9,29.68,SSW,200,11.6,16.1,88,0.00,,,0.00,WeatherDisplay:10.37,2013-01-12 08:48:00,
2013-01-12 02:53:00,50.1,46.7,29.69,South,184,11.4,16.1,88,0.00,,,0.00,WeatherDisplay:10.37,2013-01-12 08:53:00,
2013-01-12 02:58:00,50.1,46.7,29.69,SSW,212,11.4,16.1,88,0.00,,,0.00,WeatherDisplay:10.37,2013-01-12 08:58:00,
2013-01-12 03:03:00,50.2,46.8,29.69,SSW,203,12.5,18.4,88,0.00,CLR,,0.00,WeatherDisplay:10.37,2013-01-12 09:03:00,
2013-01-12 03:08:00,50.3,46.9,29.69,SW,231,13.1,17.3,88,0.00,CLR,,0.00,WeatherDisplay:10.37,2013-01-12 09:08:00,
2013-01-12 03:13:00,50.4,47.0,29.69,SSW,203,11.9,17.3,88,0.00,CLR,,0.00,WeatherDisplay:10.37,2013-01-12 09:13:00,
2013-01-12 03:18:00,50.6,46.9,29.69,SSW,198,11.5,13.0,87,0.00,CLR,,0.00,WeatherDisplay:10.37,2013-01-12 09:18:00,
2013-01-12 03:23:00,50.7,47.0,29.69,SW,222,11.8,16.0,87,0.00,CLR,,0.00,WeatherDisplay:10.37,2013-01-12 09:23:00,
2013-01-12 03:28:00,51.0,47.3,29.69,SW,214,11.5,16.1,87,0.00,CLR,,0.00,WeatherDisplay:10.37,2013-01-12 09:28:00,
2013-01-12 03:33:00,51.2,47.2,29.69,SW,215,12.8,15.0,86,0.00,CLR,,0.00,WeatherDisplay:10.37,2013-01-12 09:33:00,
2013-01-12 03:38:00,51.3,47.3,29.70,SW,224,13.2,17.3,86,0.00,CLR,,0.00,WeatherDisplay:10.37,2013-01-12 09:38:00,
2013-01-12 03:43:00,51.3,47.3,29.69,SSW,211,13.1,18.4,86,0.00,CLR,,0.00,WeatherDisplay:10.37,2013-01-12 09:43:00,
2013-01-12 03:48:00,51.3,47.3,29.70,SW,217,14.1,17.3,86,0.00,CLR,,0.00,WeatherDisplay:10.37,2013-01-12 09:48:00,
2013-01-12 03:53:00,51.2,47.2,29.70,SW,226,12.9,15.0,86,0.00,CLR,,0.00,WeatherDisplay:10.37,2013-01-12 09:53:00,
2013-01-12 03:58:00,51.1,47.1,29.70,SW,217,13.7,19.6,86,0.00,CLR,,0.00,WeatherDisplay:10.37,2013-01-12 09:58:00,
2013-01-12 04:03:00,50.8,46.8,29.70,SW,224,13.1,16.1,86,0.00,CLR,,0.00,WeatherDisplay:10.37,2013-01-12 10:03:00,
2013-01-12 04:08:00,50.5,46.5,29.70,SW,230,11.3,12.0,86,0.00,CLR,,0.00,WeatherDisplay:10.37,2013-01-12 10:08:00,
2013-01-12 04:13:00,50.4,46.7,29.70,SW,220,11.8,15.0,87,0.00,CLR,,0.00,WeatherDisplay:10.37,2013-01-12 10:13:00,
2013-01-12 04:18:00,50.4,46.7,29.70,SW,236,10.6,15.0,87,0.00,CLR,,0.00,WeatherDisplay:10.37,2013-01-12 10:18:00,
2013-01-12 04:24:00,50.4,46.4,29.71,SW,226,10.3,13.8,86,0.00,CLR,,0.00,WeatherDisplay:10.37,2013-01-12 10:24:00,
2013-01-12 04:29:00,50.3,46.3,29.71,SW,232,11.0,16.1,86,0.00,CLR,,0.00,WeatherDisplay:10.37,2013-01-12 10:29:00,
2013-01-12 04:34:00,50.1,46.4,29.72,SW,224,11.2,12.7,87,0.00,CLR,,0.00,WeatherDisplay:10.37,2013-01-12 10:34:00,
2013-01-12 04:39:00,49.8,46.1,29.72,SW,224,10.6,11.5,87,0.00,CLR,,0.00,WeatherDisplay:10.37,2013-01-12 10:39:00,
2013-01-12 04:44:00,49.7,46.0,29.72,SW,232,9.7,14.0,87,0.00,CLR,,0.00,WeatherDisplay:10.37,2013-01-12 10:44:00,
2013-01-12 04:49:00,49.6,45.9,29.72,SW,225,10.4,14.0,87,0.00,CLR,,0.00,WeatherDisplay:10.37,2013-01-12 10:49:00,
2013-01-12 04:54:00,49.7,46.0,29.73,WSW,246,10.0,13.8,87,0.00,CLR,,0.00,WeatherDisplay:10.37,2013-01-12 10:54:00,
2013-01-12 04:59:00,49.5,45.8,29.73,WSW,245,9.9,11.5,87,0.00,CLR,,0.00,WeatherDisplay:10.37,2013-01-12 10:59:00,
2013-01-12 05:04:00,49.1,45.4,29.73,WSW,243,8.7,11.5,87,0.00,CLR,,0.00,WeatherDisplay:10.37,2013-01-12 11:04:00,
2013-01-12 05:09:00,49.2,45.5,29.74,West,273,12.0,15.0,87,0.00,CLR,,0.00,WeatherDisplay:10.37,2013-01-12 11:09:00,
2013-01-12 05:14:00,50.1,45.5,29.74,West,260,10.6,19.6,84,0.00,CLR,,0.00,WeatherDisplay:10.37,2013-01-12 11:14:00,
2013-01-12 05:19:00,50.4,45.4,29.75,West,263,15.5,19.6,83,0.00,CLR,,0.00,WeatherDisplay:10.37,2013-01-12 11:19:00,
2013-01-12 05:24:00,49.8,43.2,29.76,WNW,288,17.9,23.0,78,0.00,CLR,,0.00,WeatherDisplay:10.37,2013-01-12 11:24:00,
2013-01-12 05:29:00,46.4,40.9,29.77,NW,311,14.2,17.3,81,0.00,CLR,,0.00,WeatherDisplay:10.37,2013-01-12 11:29:00,
2013-01-12 05:34:00,44.4,39.9,29.78,WNW,295,13.6,17.3,84,0.00,CLR,,0.00,WeatherDisplay:10.37,2013-01-12 11:34:00,
2013-01-12 05:39:00,43.2,39.0,29.79,WNW,293,15.5,19.6,85,0.00,CLR,,0.00,WeatherDisplay:10.37,2013-01-12 11:39:00,
2013-01-12 05:44:00,42.5,38.6,29.79,NW,310,13.4,16.1,86,0.00,CLR,,0.00,WeatherDisplay:10.37,2013-01-12 11:44:00,
2013-01-12 05:49:00,42.2,38.6,29.80,WNW,295,13.0,16.1,87,0.00,CLR,,0.00,WeatherDisplay:10.37,2013-01-12 11:49:00,
2013-01-12 05:54:00,41.9,38.3,29.80,WNW,297,9.0,11.5,87,0.00,CLR,,0.00,WeatherDisplay:10.37,2013-01-12 11:54:00,
2013-01-12 05:59:00,41.6,38.0,29.81,West,278,10.3,12.7,87,0.00,CLR,,0.00,WeatherDisplay:10.37,2013-01-12 11:59:00,
2013-01-12 06:04:00,41.3,37.7,29.80,WNW,298,9.3,11.5,87,0.00,CLR,,0.00,WeatherDisplay:10.37,2013-01-12 12:04:00,
2013-01-12 06:09:00,41.0,37.4,29.81,WNW,285,10.9,15.0,87,0.00,CLR,,0.00,WeatherDisplay:10.37,2013-01-12 12:09:00,
2013-01-12 06:14:00,40.6,37.0,29.81,WNW,302,10.1,11.5,87,0.00,CLR,,0.00,WeatherDisplay:10.37,2013-01-12 12:14:00,
2013-01-12 06:19:00,40.4,36.8,29.82,WNW,297,8.6,11.5,87,0.00,CLR,,0.00,WeatherDisplay:10.37,2013-01-12 12:19:00,
2013-01-12 06:24:00,40.2,36.6,29.82,WNW,290,9.0,12.7,87,0.00,CLR,,0.00,WeatherDisplay:10.37,2013-01-12 12:24:00,
2013-01-12 06:29:00,40.1,36.5,29.83,WNW,290,10.9,13.8,87,0.00,CLR,,0.00,WeatherDisplay:10.37,2013-01-12 12:29:00,
2013-01-12 06:34:00,40.0,36.2,29.83,WNW,295,11.9,14.0,86,0.00,CLR,,0.00,WeatherDisplay:10.37,2013-01-12 12:34:00,
2013-01-12 06:39:00,39.8,36.0,29.84,WNW,288,12.0,13.8,86,0.00,CLR,,0.00,WeatherDisplay:10.37,2013-01-12 12:39:00,
2013-01-12 06:44:00,39.5,36.0,29.84,WNW,285,5.8,8.1,87,0.00,CLR,,0.00,WeatherDisplay:10.37,2013-01-12 12:44:00,
2013-01-12 06:49:00,39.0,35.5,29.85,WNW,302,10.7,12.7,87,0.00,CLR,,0.00,WeatherDisplay:10.37,2013-01-12 12:49:00,
2013-01-12 06:54:00,38.7,34.9,29.85,WNW,297,11.1,12.0,86,0.00,CLR,,0.00,WeatherDisplay:10.37,2013-01-12 12:54:00,
2013-01-12 06:59:00,38.4,34.3,29.86,WNW,300,12.8,15.0,85,0.00,CLR,,0.00,WeatherDisplay:10.37,2013-01-12 12:59:00,
2013-01-12 07:05:00,38.1,34.0,29.86,NW,312,13.1,15.0,85,0.00,CLR,,0.00,WeatherDisplay:10.37,2013-01-12 13:05:00,
2013-01-12 07:10:00,37.9,34.1,29.86,WNW,295,10.7,13.8,86,0.00,CLR,,0.00,WeatherDisplay:10.37,2013-01-12 13:10:00,
2013-01-12 07:15:00,37.7,33.9,29.87,WNW,300,8.4,10.4,86,0.00,CLR,,0.00,WeatherDisplay:10.37,2013-01-12 13:15:00,
2013-01-12 07:20:00,37.5,34.0,29.87,WNW,294,6.5,9.2,87,0.00,CLR,,0.00,WeatherDisplay:10.37,2013-01-12 13:20:00,
2013-01-12 07:25:00,37.4,33.6,29.88,West,281,11.5,13.8,86,0.00,CLR,,0.00,WeatherDisplay:10.37,2013-01-12 13:25:00,
2013-01-12 07:30:00,37.2,33.4,29.89,West,280,11.6,13.8,86,0.00,CLR,,0.00,WeatherDisplay:10.37,2013-01-12 13:30:00,
2013-01-12 07:35:00,37.0,32.9,29.89,WNW,290,13.2,15.0,85,0.00,CLR,,0.00,WeatherDisplay:10.37,2013-01-12 13:35:00,
2013-01-12 07:40:00,36.6,32.8,29.89,WNW,299,12.8,15.0,86,0.00,CLR,,0.00,WeatherDisplay:10.37,2013-01-12 13:40:00,
2013-01-12 07:45:00,36.2,32.7,29.89,West,277,10.0,11.5,87,0.00,CLR,,0.00,WeatherDisplay:10.37,2013-01-12 13:45:00,
2013-01-12 07:50:00,35.9,32.4,29.89,West,278,9.9,12.7,87,0.00,CLR,,0.00,WeatherDisplay:10.37,2013-01-12 13:50:00,
2013-01-12 07:55:00,35.7,32.5,29.90,WNW,292,11.1,13.8,88,0.00,CLR,,0.00,WeatherDisplay:10.37,2013-01-12 13:55:00,
2013-01-12 08:00:00,35.7,32.5,29.91,WNW,291,10.3,13.8,88,0.00,CLR,,0.00,WeatherDisplay:10.37,2013-01-12 14:00:00,
2013-01-12 08:05:00,35.7,32.5,29.91,WNW,285,11.7,15.0,88,0.00,CLR,,0.00,WeatherDisplay:10.37,2013-01-12 14:05:00,
2013-01-12 08:10:00,35.6,32.4,29.92,WNW,285,10.1,12.7,88,0.00,CLR,,0.00,WeatherDisplay:10.37,2013-01-12 14:10:00,
2013-01-12 08:15:00,35.5,32.0,29.92,WNW,292,8.3,11.5,87,0.00,CLR,,0.00,WeatherDisplay:10.37,2013-01-12 14:15:00,
2013-01-12 08:20:00,35.5,32.3,29.92,WNW,295,8.1,10.4,88,0.00,CLR,,0.00,WeatherDisplay:10.37,2013-01-12 14:20:00,
2013-01-12 08:25:00,35.4,32.2,29.92,WNW,294,7.8,11.5,88,0.00,CLR,,0.00,WeatherDisplay:10.37,2013-01-12 14:25:00,
2013-01-12 08:30:00,35.3,32.1,29.92,WNW,295,9.6,11.5,88,0.00,CLR,,0.00,WeatherDisplay:10.37,2013-01-12 14:30:00,
2013-01-12 08:35:00,35.1,31.9,29.92,WNW,289,8.3,10.0,88,0.00,CLR,,0.00,WeatherDisplay:10.37,2013-01-12 14:35:00,
2013-01-12 08:40:00,34.9,31.4,29.93,WNW,294,11.0,12.7,87,0.00,CLR,,0.00,WeatherDisplay:10.37,2013-01-12 14:40:00,
2013-01-12 08:45:00,34.7,31.2,29.93,WNW,294,8.2,11.5,87,0.00,CLR,,0.00,WeatherDisplay:10.37,2013-01-12 14:45:00,
2013-01-12 08:50:00,34.8,31.6,29.93,WNW,293,8.4,11.5,88,0.00,CLR,,0.00,WeatherDisplay:10.37,2013-01-12 14:50:00,
2013-01-12 08:55:00,34.8,31.6,29.94,WNW,288,8.9,11.5,88,0.00,CLR,,0.00,WeatherDisplay:10.37,2013-01-12 14:55:00,
2013-01-12 09:00:00,34.6,31.1,29.94,NW,307,10.7,11.5,87,0.00,CLR,,0.00,WeatherDisplay:10.37,2013-01-12 15:00:00,
2013-01-12 09:05:00,34.3,30.8,29.95,NW,305,9.6,11.5,87,0.00,CLR,,0.00,WeatherDisplay:10.37,2013-01-12 15:05:00,
2013-01-12 09:11:00,34.2,30.7,29.95,NW,305,8.0,11.5,87,0.00,CLR,,0.00,WeatherDisplay:10.37,2013-01-12 15:11:00,
2013-01-12 09:16:00,34.1,30.4,29.95,NW,309,8.6,12.0,86,0.00,CLR,,0.00,WeatherDisplay:10.37,2013-01-12 15:16:00,
2013-01-12 09:21:00,33.9,29.9,29.95,WNW,297,10.2,11.5,85,0.00,CLR,,0.00,WeatherDisplay:10.37,2013-01-12 15:21:00,
2013-01-12 09:26:00,33.8,29.8,29.94,NW,307,11.6,13.8,85,0.00,CLR,,0.00,WeatherDisplay:10.37,2013-01-12 15:26:00,
2013-01-12 09:31:00,33.7,29.7,29.95,NW,309,8.8,11.5,85,0.00,CLR,,0.00,WeatherDisplay:10.37,2013-01-12 15:31:00,
2013-01-12 09:36:00,33.6,29.6,29.95,NW,320,9.6,11.5,85,0.00,CLR,,0.00,WeatherDisplay:10.37,2013-01-12 15:36:00,
2013-01-12 09:41:00,33.5,29.5,29.95,WNW,300,9.0,11.5,85,0.00,CLR,,0.00,WeatherDisplay:10.37,2013-01-12 15:41:00,
2013-01-12 09:46:00,33.5,29.5,29.96,WNW,293,7.2,9.2,85,0.00,CLR,,0.00,WeatherDisplay:10.37,2013-01-12 15:46:00,
2013-01-12 09:51:00,33.6,29.6,29.97,WNW,292,7.5,10.4,85,0.00,CLR,,0.00,WeatherDisplay:10.37,2013-01-12 15:51:00,
2013-01-12 09:56:00,33.4,28.8,29.98,West,277,10.9,13.8,83,0.00,CLR,,0.00,WeatherDisplay:10.37,2013-01-12 15:56:00,
2013-01-12 10:01:00,33.1,28.5,29.99,WNW,294,12.2,15.0,83,0.00,CLR,,0.00,WeatherDisplay:10.37,2013-01-12 16:01:00,
2013-01-12 10:06:00,33.0,28.1,29.99,WNW,288,8.3,10.4,82,0.00,CLR,,0.00,WeatherDisplay:10.37,2013-01-12 16:06:00,
2013-01-12 10:11:00,32.9,28.0,29.99,WNW,285,11.7,13.8,82,0.00,CLR,,0.00,WeatherDisplay:10.37,2013-01-12 16:11:00,
2013-01-12 10:16:00,33.4,29.1,29.99,WNW,293,10.8,12.7,84,0.00,CLR,,0.00,WeatherDisplay:10.37,2013-01-12 16:16:00,
2013-01-12 10:21:00,33.9,29.3,29.99,WNW,285,10.6,14.0,83,0.00,CLR,,0.00,WeatherDisplay:10.37,2013-01-12 16:21:00,
2013-01-12 10:26:00,33.8,28.9,29.98,WNW,295,9.5,11.5,82,0.00,CLR,,0.00,WeatherDisplay:10.37,2013-01-12 16:26:00,
2013-01-12 10:31:00,33.6,28.7,29.98,WNW,285,7.0,9.0,82,0.00,CLR,,0.00,WeatherDisplay:10.37,2013-01-12 16:31:00,
2013-01-12 10:36:00,33.4,28.2,29.98,WNW,292,9.2,10.4,81,0.00,CLR,,0.00,WeatherDisplay:10.37,2013-01-12 16:36:00,
2013-01-12 10:41:00,33.2,28.3,29.98,WNW,290,9.1,12.0,82,0.00,CLR,,0.00,WeatherDisplay:10.37,2013-01-12 16:41:00,
2013-01-12 10:46:00,33.1,28.2,29.98,WNW,283,7.2,8.1,82,0.00,CLR,,0.00,WeatherDisplay:10.37,2013-01-12 16:46:00,
2013-01-12 10:51:00,33.1,28.2,29.98,WNW,285,8.5,10.4,82,0.00,CLR,,0.00,WeatherDisplay:10.37,2013-01-12 16:51:00,
2013-01-12 10:56:00,33.1,28.5,29.98,WNW,284,6.5,8.1,83,0.00,CLR,,0.00,WeatherDisplay:10.37,2013-01-12 16:56:00,
2013-01-12 11:01:00,33.3,29.3,29.98,West,273,4.9,9.2,85,0.00,CLR,,0.00,WeatherDisplay:10.37,2013-01-12 17:01:00,
2013-01-12 11:06:00,33.5,28.6,29.97,West,266,6.1,6.9,82,0.00,CLR,,0.00,WeatherDisplay:10.37,2013-01-12 17:06:00,
2013-01-12 11:11:00,33.6,28.7,29.97,WNW,283,8.5,11.5,82,0.00,CLR,,0.00,WeatherDisplay:10.37,2013-01-12 17:11:00,
2013-01-12 11:16:00,33.7,28.8,29.97,West,271,7.2,10.4,82,0.00,CLR,,0.00,WeatherDisplay:10.37,2013-01-12 17:16:00,
2013-01-12 11:21:00,33.8,29.2,29.97,WNW,302,5.3,6.9,83,0.00,CLR,,0.00,WeatherDisplay:10.37,2013-01-12 17:21:00,
2013-01-12 11:26:00,33.7,28.5,29.99,WNW,290,7.2,9.2,81,0.00,CLR,,0.00,WeatherDisplay:10.37,2013-01-12 17:26:00,
2013-01-12 11:32:00,33.7,29.1,29.99,West,275,7.0,10.0,83,0.00,CLR,,0.00,WeatherDisplay:10.37,2013-01-12 17:32:00,
2013-01-12 11:37:00,33.7,28.5,29.99,WNW,286,7.1,11.5,81,0.00,CLR,,0.00,WeatherDisplay:10.37,2013-01-12 17:37:00,
2013-01-12 11:42:00,33.7,28.5,29.99,WNW,290,8.1,11.5,81,0.00,CLR,,0.00,WeatherDisplay:10.37,2013-01-12 17:42:00,
2013-01-12 11:47:00,33.8,28.9,29.98,West,276,10.4,11.5,82,0.00,CLR,,0.00,WeatherDisplay:10.37,2013-01-12 17:47:00,
2013-01-12 11:52:00,33.9,29.3,29.98,WNW,295,8.1,9.2,83,0.00,CLR,,0.00,WeatherDisplay:10.37,2013-01-12 17:52:00,
2013-01-12 11:57:00,33.9,29.0,29.97,West,267,6.8,10.4,82,0.00,CLR,,0.00,WeatherDisplay:10.37,2013-01-12 17:57:00,
2013-01-12 12:02:00,33.9,29.0,29.97,WNW,287,8.5,9.2,82,0.00,CLR,,0.00,WeatherDisplay:10.37,2013-01-12 18:02:00,
2013-01-12 12:07:00,33.9,29.3,29.97,WNW,296,7.3,10.0,83,0.00,CLR,,0.00,WeatherDisplay:10.37,2013-01-12 18:07:00,
2013-01-12 12:12:00,34.1,29.5,29.97,West,273,5.9,8.0,83,0.00,CLR,,0.00,WeatherDisplay:10.37,2013-01-12 18:12:00,
2013-01-12 12:17:00,34.1,29.5,29.97,WNW,295,7.5,9.2,83,0.00,CLR,,0.00,WeatherDisplay:10.37,2013-01-12 18:17:00,
2013-01-12 12:22:00,34.0,29.4,29.98,WNW,288,9.3,11.5,83,0.00,CLR,,0.00,WeatherDisplay:10.37,2013-01-12 18:22:00,
2013-01-12 12:27:00,34.1,29.8,29.98,WNW,292,6.9,9.2,84,0.00,CLR,,0.00,WeatherDisplay:10.37,2013-01-12 18:27:00,
2013-01-12 12:32:00,34.2,29.9,29.97,WNW,292,7.5,10.4,84,0.00,CLR,,0.00,WeatherDisplay:10.37,2013-01-12 18:32:00,
2013-01-12 12:37:00,34.1,29.5,29.98,NW,305,10.2,11.5,83,0.00,CLR,,0.00,WeatherDisplay:10.37,2013-01-12 18:37:00,
2013-01-12 12:42:00,33.9,29.3,29.97,WNW,288,8.3,11.5,83,0.00,CLR,,0.00,WeatherDisplay:10.37,2013-01-12 18:42:00,
2013-01-12 12:47:00,33.6,28.7,29.97,NW,314,8.8,11.5,82,0.00,CLR,,0.00,WeatherDisplay:10.37,2013-01-12 18:47:00,
2013-01-12 12:52:00,33.3,28.4,29.96,WNW,285,9.9,11.5,82,0.00,CLR,,0.00,WeatherDisplay:10.37,2013-01-12 18:52:00,
2013-01-12 12:57:00,33.2,27.7,29.97,WNW,294,10.2,13.8,80,0.00,CLR,,0.00,WeatherDisplay:10.37,2013-01-12 18:57:00,
2013-01-12 13:02:00,33.1,27.9,29.97,WNW,302,10.0,12.7,81,0.00,CLR,,0.00,WeatherDisplay:10.37,2013-01-12 19:02:00,
2013-01-12 13:07:00,32.8,27.3,29.95,WNW,290,9.9,11.5,80,0.00,CLR,,0.00,WeatherDisplay:10.37,2013-01-12 19:07:00,
2013-01-12 13:12:00,32.5,26.7,29.96,WNW,302,10.0,12.7,79,0.00,CLR,,0.00,WeatherDisplay:10.37,2013-01-12 19:12:00,
2013-01-12 13:17:00,32.3,26.8,29.96,WNW,294,8.2,11.5,80,0.00,CLR,,0.00,WeatherDisplay:10.37,2013-01-12 19:17:00,
2013-01-12 13:22:00,32.4,27.2,29.96,WNW,300,8.8,11.5,81,0.00,CLR,,0.00,WeatherDisplay:10.37,2013-01-12 19:22:00,
2013-01-12 13:27:00,32.4,27.2,29.96,WNW,286,8.6,11.5,81,0.00,CLR,,0.00,WeatherDisplay:10.37,2013-01-12 19:27:00,
2013-01-12 13:32:00,32.3,26.5,29.96,NW,310,9.4,11.5,79,0.00,CLR,,0.00,WeatherDisplay:10.37,2013-01-12 19:32:00,
2013-01-12 13:37:00,32.4,26.6,29.96,NW,320,8.4,11.5,79,0.00,CLR,,0.00,WeatherDisplay:10.37,2013-01-12 19:37:00,
2013-01-12 13:42:00,32.1,25.7,29.96,NW,311,8.1,11.5,77,0.00,CLR,,0.00,WeatherDisplay:10.37,2013-01-12 19:42:00,
2013-01-12 13:47:00,32.0,26.2,29.96,North,352,8.0,9.2,79,0.00,CLR,,0.00,WeatherDisplay:10.37,2013-01-12 19:47:00,
2013-01-12 13:52:00,32.0,25.6,29.95,NW,311,9.1,11.5,77,0.00,CLR,,0.00,WeatherDisplay:10.37,2013-01-12 19:52:00,
2013-01-12 13:57:00,31.9,25.8,29.96,NW,309,9.7,11.5,78,0.00,CLR,,0.00,WeatherDisplay:10.37,2013-01-12 19:57:00,
2013-01-12 14:02:00,32.0,26.2,29.96,NW,307,7.4,9.2,79,0.00,CLR,,0.00,WeatherDisplay:10.37,2013-01-12 20:02:00,
2013-01-12 14:07:00,32.0,25.9,29.97,NW,309,7.9,11.5,78,0.00,CLR,,0.00,WeatherDisplay:10.37,2013-01-12 20:07:00,
2013-01-12 14:12:00,32.0,25.9,29.98,NW,305,9.1,11.5,78,0.00,CLR,,0.00,WeatherDisplay:10.37,2013-01-12 20:12:00,
2013-01-12 14:17:00,32.0,25.9,29.98,WNW,294,7.7,11.0,78,0.00,CLR,,0.00,WeatherDisplay:10.37,2013-01-12 20:17:00,
2013-01-12 14:22:00,31.9,25.8,29.98,NW,305,9.5,12.0,78,0.00,CLR,,0.00,WeatherDisplay:10.37,2013-01-12 20:22:00,
2013-01-12 14:27:00,31.6,25.5,29.98,NW,311,8.8,11.5,78,0.00,CLR,,0.00,WeatherDisplay:10.37,2013-01-12 20:27:00,
2013-01-12 14:32:00,31.6,26.1,29.98,WNW,302,7.6,10.4,80,0.00,CLR,,0.00,WeatherDisplay:10.37,2013-01-12 20:32:00,
2013-01-12 14:37:00,31.5,25.4,29.99,NW,307,8.3,9.2,78,0.00,CLR,,0.00,WeatherDisplay:10.37,2013-01-12 20:37:00,
2013-01-12 14:42:00,31.4,25.0,29.99,NW,316,6.1,10.4,77,0.00,CLR,,0.00,WeatherDisplay:10.37,2013-01-12 20:42:00,
2013-01-12 14:47:00,31.1,24.7,30.00,WNW,302,9.0,11.5,77,0.00,CLR,,0.00,WeatherDisplay:10.37,2013-01-12 20:47:00,
2013-01-12 14:52:00,30.8,24.1,30.00,NW,312,8.8,13.8,76,0.00,CLR,,0.00,WeatherDisplay:10.37,2013-01-12 20:52:00,
2013-01-12 14:57:00,30.6,23.9,30.00,WNW,302,8.8,11.5,76,0.00,CLR,,0.00,WeatherDisplay:10.37,2013-01-12 20:57:00,
2013-01-12 15:02:00,30.4,23.7,30.00,NW,312,9.9,11.5,76,0.00,CLR,,0.00,WeatherDisplay:10.37,2013-01-12 21:02:00,
2013-01-12 15:07:00,30.4,24.1,29.99,NW,315,8.9,11.5,77,0.00,CLR,,0.00,WeatherDisplay:10.37,2013-01-12 21:07:00,
2013-01-12 15:13:00,30.4,24.1,30.01,NW,316,8.6,9.2,77,0.00,CLR,,0.00,WeatherDisplay:10.37,2013-01-12 21:13:00,
2013-01-12 15:18:00,30.4,24.1,30.02,WNW,286,6.9,9.2,77,0.00,CLR,,0.00,WeatherDisplay:10.37,2013-01-12 21:18:00,
2013-01-12 15:23:00,30.4,23.7,30.03,NW,313,7.0,10.4,76,0.00,CLR,,0.00,WeatherDisplay:10.37,2013-01-12 21:23:00,
2013-01-12 15:28:00,30.4,24.1,30.03,WNW,291,7.1,9.2,77,0.00,CLR,,0.00,WeatherDisplay:10.37,2013-01-12 21:28:00,
2013-01-12 15:33:00,30.5,24.8,30.02,NW,313,5.5,6.9,79,0.00,CLR,,0.00,WeatherDisplay:10.37,2013-01-12 21:33:00,
2013-01-12 15:38:00,30.3,24.3,30.02,NW,309,5.5,10.4,78,0.00,CLR,,0.00,WeatherDisplay:10.37,2013-01-12 21:38:00,
2013-01-12 15:43:00,29.9,23.9,30.01,NW,322,6.9,11.5,78,0.00,CLR,,0.00,WeatherDisplay:10.37,2013-01-12 21:43:00,
2013-01-12 15:48:00,29.6,23.9,30.02,NE,43,5.7,11.5,79,0.00,CLR,,0.00,WeatherDisplay:10.37,2013-01-12 21:48:00,
2013-01-12 15:53:00,29.3,23.3,30.01,NW,304,4.6,6.9,78,0.00,CLR,,0.00,WeatherDisplay:10.37,2013-01-12 21:53:00,
2013-01-12 15:58:00,29.2,23.2,30.01,NNW,328,6.8,10.4,78,0.00,CLR,,0.00,WeatherDisplay:10.37,2013-01-12 21:58:00,
2013-01-12 16:03:00,29.1,23.4,30.01,NW,305,4.0,4.6,79,0.00,CLR,,0.00,WeatherDisplay:10.37,2013-01-12 22:03:00,
2013-01-12 16:08:00,29.0,23.0,30.01,NW,316,5.4,6.9,78,0.00,CLR,,0.00,WeatherDisplay:10.37,2013-01-12 22:08:00,
2013-01-12 16:13:00,28.9,22.9,30.00,NW,316,4.7,8.1,78,0.00,CLR,,0.00,WeatherDisplay:10.37,2013-01-12 22:13:00,
2013-01-12 16:18:00,28.9,22.9,30.00,NNW,345,4.0,5.8,78,0.00,CLR,,0.00,WeatherDisplay:10.37,2013-01-12 22:18:00,
2013-01-12 16:23:00,28.8,22.5,30.00,NNE,33,7.1,8.1,77,0.00,CLR,,0.00,WeatherDisplay:10.37,2013-01-12 22:23:00,
2013-01-12 16:28:00,28.7,23.0,30.00,NNE,18,3.7,4.6,79,0.00,CLR,,0.00,WeatherDisplay:10.37,2013-01-12 22:28:00,
2013-01-12 16:33:00,28.7,22.7,29.99,North,351,5.2,8.1,78,0.00,CLR,,0.00,WeatherDisplay:10.37,2013-01-12 22:33:00,
2013-01-12 16:38:00,28.6,22.9,29.99,North,8,6.0,9.2,79,0.00,CLR,,0.00,WeatherDisplay:10.37,2013-01-12 22:38:00,
2013-01-12 16:43:00,28.5,23.1,29.99,NE,51,4.5,6.0,80,0.00,CLR,,0.00,WeatherDisplay:10.37,2013-01-12 22:43:00,
2013-01-12 16:49:00,28.4,22.4,29.98,NNW,345,6.0,9.2,78,0.00,CLR,,0.00,WeatherDisplay:10.37,2013-01-12 22:49:00,
2013-01-12 16:53:00,28.4,22.7,29.98,NW,318,6.8,8.1,79,0.00,CLR,,0.00,WeatherDisplay:10.37,2013-01-12 22:53:00,
2013-01-12 16:59:00,28.3,22.3,29.97,NE,52,7.2,8.1,78,0.00,CLR,,0.00,WeatherDisplay:10.37,2013-01-12 22:59:00,
2013-01-12 17:04:00,28.2,22.2,29.97,NNW,337,4.9,6.9,78,0.00,,,0.00,WeatherDisplay:10.37,2013-01-12 23:04:00,
2013-01-12 17:09:00,28.0,21.7,29.97,North,11,5.5,9.2,77,0.00,,,0.00,WeatherDisplay:10.37,2013-01-12 23:09:00,
2013-01-12 17:14:00,27.9,21.9,29.97,NE,35,7.3,9.2,78,0.00,,,0.00,WeatherDisplay:10.37,2013-01-12 23:14:00,
2013-01-12 17:19:00,27.8,21.8,29.96,NNE,16,3.7,8.1,78,0.00,,,0.00,WeatherDisplay:10.37,2013-01-12 23:19:00,
2013-01-12 17:24:00,27.7,21.4,29.95,NNE,31,6.6,10.4,77,0.00,,,0.00,WeatherDisplay:10.37,2013-01-12 23:24:00,
2013-01-12 17:29:00,27.6,21.6,29.96,NNE,23,5.1,7.0,78,0.00,,,0.00,WeatherDisplay:10.37,2013-01-12 23:29:00,
2013-01-12 17:34:00,27.6,21.6,29.97,NE,36,5.6,6.9,78,0.00,,,0.00,WeatherDisplay:10.37,2013-01-12 23:34:00,
2013-01-12 17:39:00,27.5,21.5,29.96,NNE,12,6.3,8.1,78,0.00,,,0.00,WeatherDisplay:10.37,2013-01-12 23:39:00,
2013-01-12 17:44:00,27.7,22.3,29.96,NNW,330,4.4,5.8,80,0.00,,,0.00,WeatherDisplay:10.37,2013-01-12 23:44:00,
2013-01-12 17:49:00,27.7,22.3,29.97,NNE,28,3.6,7.0,80,0.00,,,0.00,WeatherDisplay:10.37,2013-01-12 23:49:00,
2013-01-12 17:54:00,27.6,21.6,29.96,NNE,24,7.2,9.2,78,0.00,,,0.00,WeatherDisplay:10.37,2013-01-12 23:54:00,
2013-01-12 17:59:00,27.5,21.8,29.97,NNE,13,7.6,10.4,79,0.00,,,0.00,WeatherDisplay:10.37,2013-01-12 23:59:00,
2013-01-12 18:04:00,27.7,22.6,29.97,North,8,4.3,7.0,81,0.00,,,0.00,WeatherDisplay:10.37,2013-01-13 00:04:00,
2013-01-12 18:09:00,27.7,22.9,29.97,NW,316,8.3,11.5,82,0.00,,,0.00,WeatherDisplay:10.37,2013-01-13 00:09:00,
2013-01-12 18:14:00,27.7,22.3,29.98,North,1,6.7,11.5,80,0.00,,,0.00,WeatherDisplay:10.37,2013-01-13 00:14:00,
2013-01-12 18:19:00,27.6,21.9,29.98,NE,51,8.0,11.0,79,0.00,,,0.00,WeatherDisplay:10.37,2013-01-13 00:19:00,
2013-01-12 18:24:00,27.5,22.1,29.98,NW,305,5.6,9.2,80,0.00,,,0.00,WeatherDisplay:10.37,2013-01-13 00:24:00,
2013-01-12 18:29:00,27.6,22.8,29.99,WNW,300,4.1,6.0,82,0.00,,,0.00,WeatherDisplay:10.37,2013-01-13 00:29:00,
2013-01-12 18:34:00,27.5,22.7,29.99,WNW,300,5.1,9.2,82,0.00,,,0.00,WeatherDisplay:10.37,2013-01-13 00:34:00,
2013-01-12 18:39:00,27.5,22.7,30.01,NW,315,7.1,9.0,82,0.00,,,0.00,WeatherDisplay:10.37,2013-01-13 00:39:00,
2013-01-12 18:44:00,27.5,22.7,30.01,NNE,27,7.1,10.0,82,0.00,,,0.00,WeatherDisplay:10.37,2013-01-13 00:44:00,
2013-01-12 18:49:00,27.4,22.6,30.02,NW,321,6.5,9.0,82,0.00,,,0.00,WeatherDisplay:10.37,2013-01-13 00:49:00,
2013-01-12 18:54:00,27.4,22.3,30.01,NNW,337,7.6,11.5,81,0.00,,,0.00,WeatherDisplay:10.37,2013-01-13 00:54:00,
2013-01-12 18:59:00,27.4,22.3,30.01,North,6,6.9,10.4,81,0.00,,,0.00,WeatherDisplay:10.37,2013-01-13 00:59:00,
2013-01-12 19:04:00,27.4,22.3,30.02,NW,324,5.6,9.2,81,0.00,,,0.00,WeatherDisplay:10.37,2013-01-13 01:04:00,
2013-01-12 19:09:00,27.5,22.7,30.03,WNW,302,6.7,8.1,82,0.00,,,0.00,WeatherDisplay:10.37,2013-01-13 01:09:00,
2013-01-12 19:14:00,27.5,22.4,30.04,NW,310,9.2,11.5,81,0.00,,,0.00,WeatherDisplay:10.37,2013-01-13 01:14:00,
2013-01-12 19:19:00,27.4,22.0,30.03,NW,324,8.0,11.5,80,0.00,,,0.00,WeatherDisplay:10.37,2013-01-13 01:19:00,
2013-01-12 19:25:00,27.4,22.6,30.04,WNW,302,8.3,11.5,82,0.00,,,0.00,WeatherDisplay:10.37,2013-01-13 01:25:00,
2013-01-12 19:30:00,27.4,22.3,30.04,NW,316,8.7,11.5,81,0.00,,,0.00,WeatherDisplay:10.37,2013-01-13 01:30:00,
2013-01-12 19:35:00,27.3,22.5,30.04,WNW,302,7.7,9.2,82,0.00,,,0.00,WeatherDisplay:10.37,2013-01-13 01:35:00,
2013-01-12 19:40:00,27.1,22.3,30.04,NNW,338,9.2,12.7,82,0.00,,,0.00,WeatherDisplay:10.37,2013-01-13 01:40:00,
2013-01-12 19:45:00,26.8,22.6,30.04,NE,43,7.6,12.0,84,0.00,,,0.00,WeatherDisplay:10.37,2013-01-13 01:45:00,
2013-01-12 19:50:00,26.7,21.9,30.04,NNW,327,9.0,15.0,82,0.00,,,0.00,WeatherDisplay:10.37,2013-01-13 01:50:00,
2013-01-12 19:55:00,26.6,21.0,30.03,NW,320,9.0,15.0,79,0.00,,,0.00,WeatherDisplay:10.37,2013-01-13 01:55:00,
2013-01-12 20:00:00,26.6,21.0,30.03,NW,317,9.0,14.0,79,0.00,CLR,,0.00,WeatherDisplay:10.37,2013-01-13 02:00:00,
2013-01-12 20:05:00,26.6,21.3,30.03,NW,325,7.2,11.5,80,0.00,CLR,,0.00,WeatherDisplay:10.37,2013-01-13 02:05:00,
2013-01-12 20:10:00,26.4,20.5,30.02,NW,305,9.1,16.1,78,0.00,CLR,,0.00,WeatherDisplay:10.37,2013-01-13 02:10:00,
2013-01-12 20:15:00,26.2,20.6,30.02,NW,322,10.0,15.0,79,0.00,CLR,,0.00,WeatherDisplay:10.37,2013-01-13 02:15:00,
2013-01-12 20:20:00,25.9,20.9,30.01,NNW,338,10.3,12.7,81,0.00,CLR,,0.00,WeatherDisplay:10.37,2013-01-13 02:20:00,
2013-01-12 20:25:00,25.8,20.5,30.01,NE,35,9.4,11.5,80,0.00,CLR,,0.00,WeatherDisplay:10.37,2013-01-13 02:25:00,
2013-01-12 20:30:00,25.8,20.2,30.00,NW,316,8.1,13.8,79,0.00,CLR,,0.00,WeatherDisplay:10.37,2013-01-13 02:30:00,
2013-01-12 20:35:00,25.8,20.2,30.00,NNE,14,8.7,13.8,79,0.00,CLR,,0.00,WeatherDisplay:10.37,2013-01-13 02:35:00,
2013-01-12 20:40:00,25.8,19.9,30.00,NNW,345,9.6,13.8,78,0.00,CLR,,0.00,WeatherDisplay:10.37,2013-01-13 02:40:00,
2013-01-12 20:45:00,25.7,20.7,29.98,NNE,20,7.9,12.7,81,0.00,CLR,,0.00,WeatherDisplay:10.37,2013-01-13 02:45:00,
2013-01-12 20:50:00,25.5,20.2,29.98,NNW,345,7.6,11.5,80,0.00,CLR,,0.00,WeatherDisplay:10.37,2013-01-13 02:50:00,
2013-01-12 20:55:00,25.3,20.0,29.97,NE,36,13.4,16.1,80,0.00,CLR,,0.00,WeatherDisplay:10.37,2013-01-13 02:55:00,
2013-01-12 21:00:00,25.1,19.8,29.96,NE,41,11.3,16.1,80,0.00,,,0.00,WeatherDisplay:10.37,2013-01-13 03:00:00,
2013-01-12 21:05:00,25.0,20.3,29.95,NW,322,9.3,11.5,82,0.00,,,0.00,WeatherDisplay:10.37,2013-01-13 03:05:00,
2013-01-12 21:10:00,24.7,20.8,29.95,NW,316,8.4,11.5,85,0.00,,,0.00,WeatherDisplay:10.37,2013-01-13 03:10:00,
2013-01-12 21:15:00,24.4,21.1,29.95,NNE,32,9.3,11.5,87,0.00,,,0.00,WeatherDisplay:10.37,2013-01-13 03:15:00,
2013-01-12 21:20:00,24.1,21.1,29.94,NNE,19,10.1,12.7,88,0.00,,,0.00,WeatherDisplay:10.37,2013-01-13 03:20:00,
2013-01-12 21:25:00,23.9,21.1,29.94,North,356,11.0,15.0,89,0.00,,,0.00,WeatherDisplay:10.37,2013-01-13 03:25:00,
2013-01-12 21:31:00,23.7,20.9,29.94,NE,36,10.8,13.8,89,0.00,,,0.00,WeatherDisplay:10.37,2013-01-13 03:31:00,
2013-01-12 21:36:00,23.6,21.1,29.94,NE,43,6.7,8.1,90,0.00,,,0.00,WeatherDisplay:10.37,2013-01-13 03:36:00,
2013-01-12 21:41:00,23.6,21.4,29.95,NE,44,9.8,13.0,91,0.00,,,0.00,WeatherDisplay:10.37,2013-01-13 03:41:00,
2013-01-12 21:46:00,23.5,21.0,29.96,North,9,8.7,11.5,90,0.00,,,0.00,WeatherDisplay:10.37,2013-01-13 03:46:00,
2013-01-12 21:51:00,23.5,21.0,29.96,NW,315,8.4,11.5,90,0.00,,,0.00,WeatherDisplay:10.37,2013-01-13 03:51:00,
2013-01-12 21:56:00,23.5,21.0,29.96,NE,49,9.4,11.5,90,0.00,,,0.00,WeatherDisplay:10.37,2013-01-13 03:56:00,
2013-01-12 22:01:00,23.3,20.5,29.96,NNE,17,11.4,13.8,89,0.00,,,0.00,WeatherDisplay:10.37,2013-01-13 04:01:00,
2013-01-12 22:06:00,23.2,20.7,29.97,North,7,7.1,9.2,90,0.00,,,0.00,WeatherDisplay:10.37,2013-01-13 04:06:00,
2013-01-12 22:11:00,23.2,20.4,29.98,NNE,28,8.5,11.0,89,0.00,,,0.00,WeatherDisplay:10.37,2013-01-13 04:11:00,
2013-01-12 22:16:00,23.1,19.8,29.98,NW,325,8.7,11.5,87,0.00,,,0.00,WeatherDisplay:10.37,2013-01-13 04:16:00,
2013-01-12 22:21:00,23.1,20.1,29.98,NE,40,9.3,12.7,88,0.00,,,0.00,WeatherDisplay:10.37,2013-01-13 04:21:00,
2013-01-12 22:26:00,22.9,19.6,29.98,NNE,13,8.8,11.5,87,0.00,,,0.00,WeatherDisplay:10.37,2013-01-13 04:26:00,
2013-01-12 22:31:00,22.8,19.8,29.98,NW,319,7.0,10.4,88,0.00,,,0.00,WeatherDisplay:10.37,2013-01-13 04:31:00,
2013-01-12 22:36:00,22.8,20.3,29.99,NNW,329,4.2,6.9,90,0.00,,,0.00,WeatherDisplay:10.37,2013-01-13 04:36:00,
2013-01-12 22:41:00,22.8,20.3,30.00,NW,321,5.9,11.5,90,0.00,,,0.00,WeatherDisplay:10.37,2013-01-13 04:41:00,
2013-01-12 22:46:00,22.7,20.5,30.00,NW,304,7.4,13.8,91,0.00,,,0.00,WeatherDisplay:10.37,2013-01-13 04:46:00,
2013-01-12 22:51:00,22.7,20.7,30.00,WNW,285,7.5,11.5,92,0.00,,,0.00,WeatherDisplay:10.37,2013-01-13 04:51:00,
2013-01-12 22:56:00,22.6,20.6,30.00,WNW,297,6.8,11.5,92,0.00,,,0.00,WeatherDisplay:10.37,2013-01-13 04:56:00,
2013-01-12 23:00:00,22.5,20.5,30.00,NNW,336,8.0,14.0,92,0.00,,,0.00,WeatherDisplay:10.37,2013-01-13 05:00:00,
2013-01-12 23:03:00,22.4,20.7,30.00,NNW,328,5.7,10.0,93,0.00,,,0.00,WeatherDisplay:10.37,2013-01-13 05:03:00,
2013-01-12 23:08:00,22.4,20.7,30.00,NW,308,5.7,10.4,93,0.00,,,0.00,WeatherDisplay:10.37,2013-01-13 05:08:00,
2013-01-12 23:13:00,22.3,20.6,29.99,NW,309,6.9,11.5,93,0.00,,,0.00,WeatherDisplay:10.37,2013-01-13 05:13:00,
2013-01-12 23:18:00,22.2,20.5,30.00,NNE,33,7.9,11.5,93,0.00,,,0.00,WeatherDisplay:10.37,2013-01-13 05:18:00,
2013-01-12 23:23:00,22.1,20.4,30.00,NW,305,8.6,12.7,93,0.00,,,0.00,WeatherDisplay:10.37,2013-01-13 05:23:00,
2013-01-12 23:28:00,21.8,19.8,29.99,NE,55,12.3,16.1,92,0.00,,,0.00,WeatherDisplay:10.37,2013-01-13 05:28:00,
2013-01-12 23:33:00,21.7,19.7,29.99,NE,38,6.4,9.2,92,0.00,,,0.00,WeatherDisplay:10.37,2013-01-13 05:33:00,
2013-01-12 23:38:00,21.7,19.7,30.00,NW,322,7.0,8.1,92,0.00,,,0.00,WeatherDisplay:10.37,2013-01-13 05:38:00,
2013-01-12 23:43:00,21.6,19.6,29.99,North,5,6.4,11.5,92,0.00,,,0.00,WeatherDisplay:10.37,2013-01-13 05:43:00,
2013-01-12 23:48:00,21.6,19.6,29.99,North,356,8.8,12.0,92,0.00,,,0.00,WeatherDisplay:10.37,2013-01-13 05:48:00,
2013-01-12 23:53:00,21.4,19.2,29.98,NNW,329,12.2,16.1,91,0.00,,,0.00,WeatherDisplay:10.37,2013-01-13 05:53:00,
2013-01-12 23:58:00,21.3,19.1,29.97,NNE,15,10.2,11.5,91,0.00,,,0.00,WeatherDisplay:10.37,2013-01-13 05:58:00,